FLOCK 3P-27 (41963 NORAD) Tracking and Keplerian Element Data

This shows tracking and keplerian element data for the satellite.

Feedback or suggestion? Click here.




ElementValue
Catalog41963
NameFLOCK 3P-27
Epoch Orbit5527
Epoch Day45.60116362
Epoch Year2018
RAAN111.0322
Inclination97.4653
Eccentricity0.0010335
Argument of Perigee67.2864
Mean Anonmoly292.9465
Mean Motion15.23940178
Decay Rate1.597E-05
L11 41963U 17008R 18045.60116362 .00001597 00000-0 68981-4 0 9990
L22 41963 97.4653 111.0322 0010335 67.2864 292.9465 15.23940178 55270

Live tracking and technical data element details for FLOCK 3P-27 (NORAD 41963). FLOCK 3P-27 can be tracked NOW for your location showing map with azimuth and elevation plus other details from your city location.

Track the satellite on the map from your city or location and see movement details for azimuth, elevation, latitude, longitude, range, height, and movement on the map or in text.







IsCatalogInMostPopularTable: catalog: 41963, numindb: 129
Update: records affected: 1



GetName: 41963 FLOCK 3P-27

Hit Count: updated at: Fri, 16 Nov 2018 12:32:24 GMT